Weather Roundup
Issued by NWS Springfield, MO

Home | Current Version | Previous Version | Text Only | Print | Product List | Glossary On
Versions: 1 2 3 4 5 6 7 8 9 10 11 12 13 14 15 16 17 18 19 20 21 22 23 24 25 26 27 28 29 30 31 32 33 34 35 36 37 38 39 40 41 42 43 44 45 46 47 48 49 50
234
NZUS99 KSGF 182157
HRRSGF

HOURLY WEATHER
NATIONAL WEATHER SERVICE SPRINGFIELD MO
400 PM CST WED JAN 18 2017

......SGF CWA......

CITY           SKY/WX    TMP DP  RH WIND       PRES   REMARKS
SPRINGFIELD    CLOUDY    49  38  65 SE9       30.04R
JOPLIN         CLOUDY    54  41  61 SE8       30.03F
WEST PLAINS    CLOUDY    42  38  85 SE5       30.09F
ROLLA          CLOUDY    49  35  58 MISG      30.06S
BRANSON        CLOUDY    41  39  93 E8        30.07F

......SURROUNDING SGF CWA......

CITY           SKY/WX    TMP DP  RH WIND       PRES   REMARKS
CHANUTE        CLOUDY    49  40  71 E6        30.01F
PARSONS        CLOUDY    50  39  66 SE5       30.03F
COFFEYVILLE    CLOUDY    51  40  65 CALM      30.03S
EMPORIA        PTSUNNY   52  33  48 S13       29.97F
HARRISON AR    CLOUDY    43  41  93 SE9       30.06F

......KANSAS AND MISSOURI......

CITY           SKY/WX    TMP DP  RH WIND       PRES   REMARKS
KANSAS CTY INT SUNNY     48  37  65 SE10      30.00F
SEDALIA        CLOUDY    50  39  66 S5        30.06S
ST JOSEPH      SUNNY     49  39  68 SE10      30.00F
ST LOUIS       PTSUNNY   48  34  58 SE8       30.10F
WICHITA        SUNNY     54  41  61 S14       29.96F
TOPEKA         SUNNY     54  39  57 SE13      29.98F
OLATHE         SUNNY     47  41  80 S10       30.01F

......TENNESSEE......

CITY           SKY/WX    TMP DP  RH WIND       PRES   REMARKS
MEMPHIS        NOT AVBL
NASHVILLE      CLOUDY    49  39  68 E5        30.15F

......ARKANSAS.......

CITY           SKY/WX    TMP DP  RH WIND       PRES   REMARKS
FAYETTEVILLE   CLOUDY    50  47  89 E5        30.03F
FT SMITH       CLOUDY    47  42  83 E7        30.06R
LITTLE ROCK    CLOUDY    46  46 100 NE5       30.10S FOG

......OKLAHOMA.......

CITY           SKY/WX    TMP DP  RH WIND       PRES   REMARKS
TULSA          CLOUDY    52  43  71 S9        30.04S
PONCA CITY     CLOUDY    54  36  50 S7        30.00S
MCALESTER      CLOUDY    49  46  90 CALM      30.03F FOG
OKLAHOMA CITY  CLOUDY    56  43  61 S8        29.99F

......IOWA............

CITY           SKY/WX    TMP DP  RH WIND       PRES   REMARKS
DES MOINES     NOT AVBL
QUAD CITIES    CLEAR     42  35  76 S3        30.04S

......ILLINOIS........

CITY           SKY/WX    TMP DP  RH WIND       PRES   REMARKS
QUINCY         SUNNY     43  36  76 S10       30.08R
CHICAGO        CLOUDY    36  32  85 SW8       30.05S WCI  30




USA.gov is the U.S. government's official web portal to all federal, state and local government web resources and services.